Ramón Villeda Morales International Airport
MHLM : now visible

Airfield :











YOU CAN JOIN US ON...

 
LOGIN :

Register | Disclaimer

   EN    FR    IT 

 









Legend :    VFR   Marginal VFR   IFR   Intensive IFR   Very Intensive IFR
Visi :
Ceiling :
>= 8 km
>= 3000ft
5 to 8 km
1000 to 3000 ft
1500m to 5 km
500 to 1000 ft
800 to 1500m
200 to 500 ft
< 800m
< 200 ft
Symbols :   Thunderstorms  Fog  Heavy snow  Heavy precipitations  Wind > 20 kt






- Airport Elevation : 91 ft
- IATA code : SAP


MHLM - Ramón Villeda Morales International

CURRENT METAR :
  • 222200Z 06014KT 9999 FEW032 BKN250 34/24 Q1009 A2980 NOSIG

EXPIRED METARs :
  • 222100Z 06006KT 9999 FEW032 BKN250 35/21 Q1009 A2980 NOSIG
  • 222000Z 07006KT 9999 FEW032 BKN250 35/22 Q1010 A2983 NOSIG

TAF TAF MHLM
Valid from the 22 at 18:00 until the 23 at 18:00 UTC


221615Z 2218/2318 01010KT 9999 SCT028TCU TX35/2221Z TN25/2312Z
BECMG 2301/2303 TS SCT030TCU FEW032CB SCT080
BECMG 2308/2314 23004KT FEW026 BKN070
BECMG 2315/2317 02010KT
MHTG FIR / North America



MET'MAP, your aeronautical weather chart ! - Copyright ORBIFLY December 2007 - Disclaimer

ORBIFLY MET'MAP TEAM :

Programming & Development : Alexandra Zaïnal
Concept & original design : Baudouin d'Aumeries
Assistance for programming : Marc-Olivier Méhu
Technical & hardware support : Manuel Goepfert

Contact : metmap@orbifly.com




SOURCES & CREDITS :

   NOAA       Earth
Advisory